Location: Dorothea Dix Park
(35.7688°N, 78.6619°W)
Time: 01:21:41
(UTC-04:00)

ISS - Pass Details

Date: 18 May 2019
Orbit: 407 x 410 km, 51.6° (Epoch: 23 May)

Event Time Altitude Azimuth Distance (km) Brightness Sun altitude
Rises 21:24:09 0° 226° (SW) 2,316 0.2 -12.8°
Reaches altitude 10° 21:26:13 10° 226° (SW) 1,460 -0.9 -13.2°
Maximum altitude 21:29:30 87° 142° (SE) 411 -3.9 -13.7°
Drops below altitude 10° 21:32:48 10° 49° (NE) 1,469 -1.1 -14.2°
Sets 21:34:53 0° 49° (NE) 2,334 -0.1 -14.6°
